COSMOS 397 DEB, 5018

Orbit data source: Space-Track

COSMOS 397 DEB, 5018 is space debris in LEO originally from a launch on Thu, 25 Feb 1971 UTC launched from the Tyuratam Missile And Space Complex (TTMTR). Debris objects in space refer to the collection of defunct objects orbiting the Earth. Examples of debris include non-operational satellites, rocket bodies, and fragments generated from explosions, collisions, or faulty payload assembly.

Loading next visibility...
Identifier
5018, 1971-015M
Orbit
LEO
Country
Flag of CISCIS
Related business
Manufacturer
Unknown
Mission
Spacecraft
Bus & Motor
Unknown
Mass
Unknown
Launch date (UTC)
1971-02-25 (55 years ago)
Launch vehicle
Unknown
Launch site
Tyuratam Missile And Space Complex (TTMTR)
Object type
Payload
Rocket body
Debris
Shape & HBR
Unknown shape, 0.2 m
Radar Cross Section
Medium (>0.1 m² and <1 m²)

Expand to show TLE details & history
Last TLE update: 13 hours ago

TLE from 13 hours ago
0 COSMOS 397 DEB
1 05018U 71015M   25349.87498989  .00000108  00000-0  85266-4 0  9993
2 05018  65.7109 155.4904 1007157 282.4232  66.6024 12.80470158555629
Epoch: 2025-12-15T20:59Z
TLE epoch observation values (Epoch: 2025-12-15T20:59:59.126Z)
Latitude
0.00002°
Longitude
115.72676°
Altitude
1,102.492 km
Speed
7.414 km/s
True Right ascension
10h 21m 57s
True Declination
0° 00' 00"
Sunlit
Object was in daylight at epoch
Visualization orbit readout
Latitude
Unknown
Longitude
Unknown
Altitude
Unknown
Speed
Unknown
Apparent Right ascension
Unknown
Apparent Declination
Unknown
Sunlit
N/A
Visualization observer readout
Local Sidereal Time
08:35:33
Azimuth
Unknown
Elevation
Unknown
Doppler factor
Unknown
Orbital elements
Apogee altitude
2,115.311 km
Perigee altitude
561.007 km
Semi-major axis
7,716.296 km
Eccentricity
0.10072
Inclination
65.7109°
RAAN
155.4904°
Arg. of periapsis
282.4232°
True anomaly
77.68087°
Mean anomaly
66.6024°
Eccentric anomaly
72.09345°
Mean motion
3.20206 °/min
Orbital period
112.43 mins
BSTAR
0.000085266
Loading maneuver chart data...
Computing Atmospheric mass density...
Loading historical data...
Loading historical data...
Loading historical data...
Loading historical data...
Loading historical data...
Loading historical data...
Loading historical data...

Documentation

Showing up to 5 results
|